{"data":{"norad_id":64175,"intl_designator":"2025-113F","name":"STARLINK-34231","alt_names":[],"object_type":"PAYLOAD","status":"ACTIVE","operator":null,"country":"US","launch_date":"2025-05-28","launch_site_code":"AFETR","launch_vehicle":null,"mission":null,"orbit_class":"UNKNOWN","rcs_meters":null,"size_class":null,"mass_kg":null,"dimensions":null,"purposes":["comms"],"wikipedia_slug":null,"has_3d_model":false,"image_url":null,"decayed_at":null,"tle_current":{"epoch":"2026-09-20T23:21:23.063904Z","epoch_age_seconds":99531,"freshness":"FRESH","line1":"1 64175U 25113F   26263.97318361  .00011772  00000+0  39040-3 0  9998","line2":"2 64175  53.1606 262.6605 0001988 119.2695 240.8506 15.31709191 74982","mean_motion":15.31709191,"eccentricity":0.0001988,"inclination_deg":53.1606,"raan_deg":262.6605,"arg_perigee_deg":119.2695,"mean_anomaly_deg":240.8506,"bstar":0.0003904,"rev_number":7498,"period_min":94.012623836244,"perigee_km":469.35104616993,"apogee_km":472.07414876989,"semimajor_km":6848.8495974699,"source":"CELESTRAK","updated_at":"2026-09-21T09:00:35.243654Z"}}}